www.pogodaiklimat.ru

Погода и климат >> Архив погоды >> Австралия >> Северная территория >> Кинтор


ПОГОДА в Кинторе

  • Прогноз погоды в Кинторе
  • Монитор погоды в Кинторе

АРХИВ ПОГОДЫ в Кинторе

Время (UTC), дата Ветер
(напр.,м/с)
 
Видим.   Явления Облачность Т
(С)
Тd
(С)
f
(%)
Тe
(С)
Тes
(С)
Комфортность P
(гПа)
Po
(гПа)
Тmin
(С)
Tmax
(С)
R
(мм)
R24
(мм)
S
(см)
14 15.09 В 2 н/о н/о +20.1 -11.2 11 +20 +20 1016.4 965.0 +34.3
17 15.09 Ю 4 н/о н/о +21.9 -11.1 10 +20 +20 1015.8 964.4
20 15.09 В 3 н/о н/о +19.2 -9.8 13 +19 +19 1015.7 964.3
23 15.09 В 5 н/о н/о +23.9 -10.9 9 +21 +21 комфорт 1017.5 966.1
02 16.09 С 3 н/о н/о +32.6 -11.9 5 +28 +28 жарко 1017.2 965.8 +15.1
05 16.09 ЮЗ 3 н/о н/о +34.1 -10.8 5 +30 +30 жарко 1014.6 963.3
08 16.09 ЮВ 3 н/о н/о +33.9 -11.0 5 +29 +29 жарко 1013.4 962.2
11 16.09 Ю 3 н/о н/о +25.7 -12.6 7 +22 +22 комфорт 1014.6 963.3
14 16.09 С 1 н/о н/о +20.7 -13.3 9 +21 +21 комфорт 1015.1 963.8 +35.4
17 16.09 ЮВ 7 н/о н/о +23.7 -5.3 14 +22 +22 комфорт 1014.4 963.1
20 16.09 ЮВ 9 н/о н/о +23.2 +0.3 22 +22 +22 комфорт 1014.6 963.3
23 16.09 В 8 н/о н/о +24.2 -0.2 20 +23 +23 комфорт 1016.4 965.0
02 17.09 СВ 5 н/о н/о +32.1 -9.9 6 +28 +28 жарко 1016.5 965.1 +19.0
05 17.09 СЗ 3 н/о н/о +35.0 -13.0 4 +30 +30 жарко 1014.3 963.0
08 17.09 СЗ 4 н/о н/о +34.2 -13.5 4 +29 +29 жарко 1013.9 962.6
11 17.09 С 3 н/о н/о +27.5 -13.2 6 +24 +24 комфорт 1015.7 964.3
14 17.09 ЮВ 2 н/о н/о +20.4 -13.5 9 +20 +20 1016.2 964.8 +35.9
17 17.09 В 4 н/о н/о +19.7 -12.7 10 +19 +19 1015.4 964.1
20 17.09 В 6 н/о н/о +21.4 -10.2 11 +20 +20 1016.2 964.8
23 17.09 СВ 7 н/о н/о +24.4 -6.8 12 +22 +22 комфорт 1018.0 966.5
02 18.09 С 7 н/о н/о +33.0 -5.6 8 +29 +29 жарко 1017.3 965.9 +18.1
05 18.09 С 6 н/о н/о +36.1 -7.1 6 +32 +32 жарко 1014.7 963.4
08 18.09 С 4 н/о н/о +34.0 -8.6 6 +30 +30 жарко 1013.2 962.0
11 18.09 СЗ 3 н/о н/о +27.5 -8.2 9 +24 +24 комфорт 1014.6 963.3
14 18.09 СВ 3 н/о н/о +24.0 -7.1 12 +22 +22 комфорт 1015.1 963.8 +36.2
17 18.09 СВ 5 н/о н/о +22.4 -6.4 14 +21 +21 комфорт 1013.4 962.2
20 18.09 СВ 5 н/о н/о +21.6 -6.1 15 +20 +20 1013.2 962.0
23 18.09 СВ 5 н/о н/о +24.9 -5.4 13 +23 +23 комфорт 1014.4 963.1
02 19.09 С 10 н/о н/о +34.0 -6.6 7 +30 +30 жарко 1012.8 961.6 +20.8
05 19.09 СЗ 8 н/о н/о +35.7 -5.4 7 +31 +31 жарко 1009.0 958.0
08 19.09 СЗ 9 н/о н/о +34.6 -6.2 7 +30 +30 жарко 1007.8 956.8
11 19.09 С 6 н/о н/о +30.8 -4.3 10 +27 +27 жарко 1008.8 957.8
14 19.09 С 5 н/о н/о +28.7 -4.6 11 +25 +25 комфорт 1008.6 957.6 +36.8
17 19.09 СЗ 4 н/о н/о +26.0 -1.7 16 +24 +24 комфорт 1007.0 956.1
20 19.09 ЮЗ 5 н/о н/о +23.9 -5.2 14 +22 +22 комфорт 1007.3 956.4
23 19.09 Ю 7 н/о н/о +22.9 -1.2 20 +22 +22 комфорт 1011.1 960.0
02 20.09 Ю 8 н/о н/о +25.6 +4.1 25 +25 +25 комфорт 1012.6 961.4 +22.0
05 20.09 Ю 8 н/о н/о +26.1 +4.6 25 +25 +25 комфорт 1012.4 961.2
08 20.09 Ю 8 н/о н/о +24.6 +1.5 22 +23 +23 комфорт 1013.4 962.2
11 20.09 Ю 5 н/о н/о +20.4 -2.0 22 +20 +20 1016.0 964.6
14 20.09 ЮВ 5 н/о н/о +16.9 -4.9 22 +16 +16 1016.9 965.5 +30.0
17 20.09 ЮВ 7 н/о н/о +14.4 -4.3 27 +13 +13 1016.8 965.4
20 20.09 ЮВ 7 н/о н/о +11.6 -3.3 35 +9 +9 1017.9 966.4
23 20.09 ЮВ 11 н/о н/о +13.6 -2.3 33 +11 +11 1019.2 967.7
02 21.09 ЮВ 7 н/о н/о +19.6 -6.1 17 +19 +19 1020.4 968.8 +10.4
05 21.09 ЮВ 5 н/о н/о +23.1 -8.9 11 +21 +21 комфорт 1017.7 966.2
08 21.09 В 4 н/о н/о +23.9 -9.5 10 +21 +21 комфорт 1016.6 965.2
11 21.09 ЮВ 6 н/о н/о +20.0 -10.2 12 +19 +19 1018.4 966.9
14 21.09 ЮВ 8 н/о н/о +16.3 -6.7 20 +15 +15 1019.4 967.9 +24.4
17 21.09 ЮВ 8 н/о н/о +15.2 -7.6 20 +14 +14 1018.9 967.4
20 21.09 ЮВ 9 н/о н/о +14.5 -6.4 23 +12 +12 1019.1 967.6
23 21.09 ЮВ 7 н/о н/о +16.9 -6.2 20 +16 +16 1021.7 970.0
02 22.09 В 6 н/о н/о +21.1 -5.7 16 +20 +20 1022.2 970.5 +13.8
05 22.09 ЮВ 6 н/о н/о +23.9 -6.2 13 +22 +22 комфорт 1020.2 968.6
08 22.09 ЮВ 7 н/о н/о +23.9 -6.2 13 +22 +22 комфорт 1019.4 967.9
11 22.09 ЮВ 7 н/о н/о +21.2 -5.6 16 +20 +20 1021.1 969.5
14 22.09 ЮВ 8 н/о н/о +19.9 -6.6 16 +19 +19 1021.8 970.1 +25.1

 

Местоположение метеостанции Кинтор (Северная территория, Австралия): широта -23.27 долгота 129.37 высота над уровнем моря 455 м.

В архиве по умолчанию представлена погода в Кинторе за последнюю неделю. Архивные данные за месяц целиком и за предыдущие месяцы, начиная с января 2011 года, Вы можете получить, выбрав интересующий диапазон дат из раскрывающегося списка и нажав кнопку "Ввод!".


*Определитесь, кто Вы:
робот инопланетянин человек

Внимание! Время в таблицах - всемирное. Для получения местного времени необходимо прибавить поправку, которая равна 9.5 ч.

Смотрите также архив погоды в соседних городах и на ближайших метеорологических станциях:

Погода в Джайлсе (Западная Австралия, Австралия) (224 км)
Погода в Юларе (Северная территория, Австралия) (270 км)
Погода в Раббит Флат (Северная территория, Австралия) (350 км)
Погода в Уорбертоне (Западная Австралия, Австралия) (425 км)
Погода в Эрнабелле (Южная Австралия, Австралия) (438 км)
Погода на Виноградной ферма (Северная территория, Австралия) (446 км)
Погода в Элис-Спрингсе (Северная территория, Австралия) (464 км)
Погода в Ладжаману (Северная территория, Австралия) (565 км)
Погода в Холс Крик (Западная Австралия, Австралия) (588 км)
Погода в Теннант-Крике (Северная территория, Австралия) (642 км)

Пояснения к столбцам:

Ветер - указаны скорость ветра в м/с - средняя за 10 мин, порывы в срок и между сроками (в фигурных скобках) и направление, откуда дует ветер: С - северный, СВ - северо-восточный, В - восточный, ЮВ - юго-восточный, Ю - южный, ЮЗ - юго-западный, З - западный, СЗ - северо-западный.
Видимость - горизонтальная дальность видимости в метрах или километрах. При видимости от 1 до 10 км при отсутствии осадков обычно наблюдается дымка, при ухудшении видимости до 1 км и менее - туман. В сухую погоду видимость может ухудшаться дымом, пылью или мглою.
Явления - указаны атмосферные явления, наблюдавшиеся в срок или в последний час перед сроком; фигурными скобками обозначены явления, наблюдавшиеся между сроками (за 1-3 часа до срока); квадратными скобками обозначены град или гололедные отложения с указанием их диаметра в мм.
Облачность - указаны через наклонную черту общая и нижняя облачность в баллах и высота нижней границы облаков в метрах; квадратными скобками обозначены формы облаков: Ci - перистые, Cs - перисто-слоистые, Cc - перисто-кучевые, Ac - высококучевые, As - высокослоистые, Sc - слоисто-кучевые, Ns - слоисто-дождевые, Cu - кучевые, Cb - кучево-дождевые. Подробнее классификацию облаков см. в Атласе облаков (PDF).
T - Температура воздуха - температура, измеренная на высоте 2 м над землей.
Td - Температура точки росы - температура, при понижении до которой содержащийся в воздухе водяной пар достигнет насыщения.
f - Относительная влажность воздуха - влажноcть воздуха, измеренная на высоте 2 м над землей.
Te - Эффективная температура - температура, которую ощущает одетый по сезону человек в тени. Характеристика душности погоды. При расчете учитывается влияние влажности воздуха и скорости ветра на теплоощущения человека.
Tes - Эффективная температура на солнце - температура, которую ощущает человек, с поправкой на солнечный нагрев. Характеристика знойности погоды. Зависит от высоты солнца над горизонтом, облачности и скорости ветра. Ночью, в пасмурную погоду, а также при ветре 12 м/с и более поправка равна нулю.
P - Атмосферное давление - приведенное к уровню моря атмосферное давление.
Po - Атмосферное давление - измеренное на уровне метеостанции атмосферное давление.
Tmin - Минимальная температура - минимум температуры воздуха на высоте 2 м над землей.
Tmax - Максимальная температура - максимум температуры воздуха на высоте 2 м над землей.
R - Количество осадков - Количество выпавших осадков за период времени, мм. При наведении курсора мыши на число - период времени, за который выпало указанное количество осадков.
R24 - Количество осадков - Количество выпавших осадков за 24 часа, мм.
S - Снежный покров - Высота снежного покрова, см. При наведении курсора мыши на число - состояние снежного покрова и степень покрытия местности в баллах.